User: anonymous   Login
Location: Bangkok
(13.7500°N, 100.5170°E)
Time: 18:04:21
(UTC+07:00)
Language:

Cosmos 1898 Rocket - Orbit

View from above orbital plane
View from above orbital plane
View from above satellite
View from above satellite

Ground track
Ground track

The orbit data is extracted from the following two-line orbital elements,

1 18586U 87098B   17145.60875556 -.00000024 +00000-0 +71837-6 0  9999
2 18586 074.0064 336.9117 0020461 036.9906 023.8898 14.36780263543816
Epoch (UTC): 25 May 2017 14:36:36
Eccentricity: 0.0020461
inclination: 74.0064°
perigee height: 754 km
apogee height: 784 km
right ascension of ascending node: 336.9117°
argument of perigee: 36.9906°
revolutions per day: 14.36780263
mean anomaly at epoch: 23.8898°
orbit number at epoch: 54381

The dashed part of the orbit path shows where the satellite is in the earth's shadow,  

DLR